Location: Altenhof
(50.2418°N, 10.8789°E)
Time: 21:53:25
(UTC+00:00)

STARLINK-1126 - Pass Details

Date: 18 February 2020
Orbit: 531 x 533 km, 53.0° (Epoch: 29 March)

Event Time Altitude Azimuth Distance (km) Brightness Sun altitude
Exits shadow 05:42:12 - 255° (WSW) 2,013 5.9 -7.2°
Reaches altitude 10° 05:42:50 10° 256° (WSW) 1,761 5.6 -7.1°
Maximum altitude 05:46:49 78° 342° (NNW) 540 3.5 -6.5°
Drops below altitude 10° 05:50:49 10° 70° (ENE) 1,760 7.2 -5.8°
Sets 05:53:02 0° 72° (ENE) 2,648 8.3 -5.5°
